Tracking 19562 objects as of 22-Mar-2019
HD Live streaming from Space Station
objects crossing your sky now

MEASAT 2

Track MEASAT 2 now!
MEASAT 2 is classified as:


NORAD ID: 24653
Int'l Code: 1996-063B
Perigee: 35,962.1 km
Apogee: 35,971.3 km
Inclination: 8.4 °
Period: 1,444.9 minutes
Semi major axis: 42337 km
RCS: 25.1189 m2 (large)
Launch date: November 13, 1996
Source: Malaysia (MALA)
Launch site: FRENCH GUIANA (FRGUI)

Digital video and audio broadcasting, international and domestic VSAT and telecommunication services as well as high-speed Internet access; 6 C-band, 9 Ku-band; Malaysia and neighboring countries.
aabbcc
Your satellite tracking list
Your tracking list is empty




NASA's NSSDC Master Catalog

Two Line Element Set (TLE):
1 24653U 96063B   19080.78909831 -.00000300 +00000-0 +00000-0 0  9991
2 24653 008.4140 045.4258 0001087 260.2608 112.7834 00.99658035081939
Source of the keplerian elements: AFSPC